Regional Weather Roundup
Issued by NWS Wilmington, NC

Home | Current Version | Previous Version | Text Only | Print | Product List | Glossary On
Versions: 1 2 3 4 5 6 7 8 9 10 11 12 13 14 15 16 17 18 19 20 21 22 23 24 25 26 27 28 29 30 31 32 33 34 35 36 37 38 39 40 41 42 43 44 45 46 47 48 49 50
000
ASUS42 KILM 250112
RWRILM
RWRILM
REGIONAL HOURLY WEATHER ROUNDUP
NATIONAL WEATHER SERVICE WILMINGTON NC
800 PM EST TUE JAN 24 2017

NOTE: "FAIR" INDICATES FEW OR NO CLOUDS BELOW 12,000 FEET WITH NO
SIGNIFICANT WEATHER AND/OR OBSTRUCTIONS TO VISIBILITY.

...............WFO WILMINGTON COUNTY WARNING AREA...............

......COASTAL NC AND SC COUNTIES......

CITY           SKY/WX    TMP DP  RH WIND       PRES   REMARKS
WILMINGTON     CLEAR     53  44  71 W5        29.77R
N MYRTLE BEACH CLEAR     50  47  89 CALM      29.79R
MYRTLE BEACH   NOT AVBL

......INLAND NC AND SC COUNTIES.......

CITY           SKY/WX    TMP DP  RH WIND       PRES   REMARKS
LUMBERTON      CLEAR     50  43  77 W3        29.78R
ELIZABETHTOWN  CLEAR     52  44  72 W3        29.78R
WHITEVILLE     CLEAR     54  42  63 CALM      29.78R
FLORENCE       CLEAR     55  42  61 W6        29.80R
DARLINGTON     CLEAR     53  43  68 W6        29.81R
KINGSTREE      FAIR      50  43  76 CALM      29.82R
HARTSVILLE     FAIR      52  41  66 W3        29.81R
BENNETTSVILLE  FAIR      55  45  67 W3        29.79R
CONWAY         FAIR      46  45  93 CALM      29.80R
GEORGETOWN     FAIR      50  43  76 W5        29.83R
MARION         FAIR      52  41  66 W6        29.80R

....................REST OF NORTH CAROLINA......................

.........EASTERN NC.........

CITY           SKY/WX    TMP DP  RH WIND       PRES   REMARKS
CAPE HATTERAS  CLEAR     53  43  68 W8        29.67R
JACKSONVILLE   CLEAR     46  43  89 CALM      29.76R
MOREHEAD CITY  CLEAR     54  44  69 W8        29.72R
KENANSVILLE    CLEAR     54  41  62 NW3       29.76R
NEW BERN       CLEAR     52  41  66 CALM      29.73R
ELIZABETH CITY PTCLDY    45  38  76 W5        29.66R

.........CENTRAL NC.........

CITY           SKY/WX    TMP DP  RH WIND       PRES   REMARKS
RALEIGH DURHAM CLEAR     52  37  56 W5        29.77R
ROCKY MOUNT    CLEAR     52  40  63 W6        29.74R
ROANOKE RAPIDS NOT AVBL
FAYETTEVILLE   CLEAR     57  40  52 NW7       29.77R
HOFFMAN        CLEAR     48  40  75 CALM      29.78R

.........WESTERN NC.........

CITY           SKY/WX    TMP DP  RH WIND       PRES   REMARKS
CHARLOTTE      PTCLDY    53  39  59 W5        29.80R
GREENSBORO     CLEAR     49  38  65 NW10      29.78R
HICKORY        NOT AVBL
BOONE          NOT AVBL
ASHEVILLE      NOT AVBL

.....................REST OF SOUTH CAROLINA.....................

.........EASTERN SC.........

CITY           SKY/WX    TMP DP  RH WIND       PRES   REMARKS
CHARLESTON     CLEAR     56  44  64 W6        29.84R
BEAUFORT MCAS  CLEAR     52  46  80 SW6       29.86R
HILTON HEAD    CLEAR     50  46  87 CALM      29.88R

.........CENTRAL SC.........

CITY           SKY/WX    TMP DP  RH WIND       PRES   REMARKS
COLUMBIA       CLEAR     55  43  63 W6        29.82R
ORANGEBURG     CLEAR     52  46  80 W5        29.83R
SUMTER SHAW    CLEAR     55  41  58 W6        29.80R

.........WESTERN SC.........

CITY           SKY/WX    TMP DP  RH WIND       PRES   REMARKS
GREENVILLE     NOT AVBL
ROCK HILL      CLEAR     51  36  56 W3        29.80R
ANDERSON       CLEAR     55  39  54 SW8       29.81R
CLEMSON        NOT AVBL
GREENWOOD      CLEAR     53  38  56 SW6       29.83S


...................COASTAL AND OFFSHORE REPORTS..................

................LOCAL PIERS AND NC RESERVE................


STATION/POSITION TIME  SKY/WX   TEMP    WIND        PRES    VSBY
                                AIR SEA DIR/SP/G
                 (UTC)          (F)     (DEG/KT/KT) (MB)    (MI)
JOHNY MRCER PIER 0048            57 55  250/  5/  7 1006.6R
NC RESRV MASNBRO 2345            55     270/  1     1006.0
OCEAN CREST PIER NOT AVBL
SPRINGMAID  PIER NOT AVBL


................COASTAL AND OFFSHORE BUOYS................


STATION/POSITION TIME  SKY/WX   TEMP    WIND        PRES    VSBY
                                AIR SEA DIR/SP/G
                 (UTC)          (F)     (DEG/KT/KT) (MB)    (MI)
DIMNDSHOAL 41025 0050            57 74  280/ 17/ 21 1004.7R
WVE H/P(F/S)=  6/11 SWL H/P/D(F/S/D)=  5/130/11

CAPE LOOKOUT     0100            56     270/ 11/ 14 1006.1R
ONSLOW BAY 41036 NOT AVBL
ONSLOW BAY 41064 0008            61 65  300/ 14/ 19 1006.7R
ONSLOW BAY 41159 0043               65                N/A
WVE H/P(F/S)=  5/12 SWL H/P/D(F/S/D)=  3/ 80/12

MASNBO INL 41110 0059               57                N/A
WVE H/P(F/S)=  2/12 SWL H/P/D(F/S/D)=  2/120/12

WILM HARBR 41108 0056               56                N/A
WVE H/P(F/S)=  4/ 7 SWL H/P/D(F/S/D)=  2/140/12

27SE WRITB 41037 0008            63 67  260/ 16/ 19 1006.6R
FRYING PAN 41013 0050            65 69  290/ 17/ 21 1008.4R
WVE H/P(F/S)=  5/ 4 SWL H/P/D(F/S/D)=  3/ 90/12

SUNST NRSH 41024 0008            58 56  280/  4/  6 1007.6R
CAPRS NRSH 41029 0008            60 57  270/ 10/ 12 1009.4R
EDISTO     41004 0050            65 68  270/ 19/ 21 1009.1R
WVE H/P(F/S)=  5/ 5 SWL H/P/D(F/S/D)=  2/ 90/12



..........OFFSHORE BUOYS BEYOND 100 NM OFFSHORE...........
.....IN A TRIANGLE---HAT TO BERMUDA TO BAHAMAS TO HAT.....


STATION/POSITION TIME  SKY/WX   TEMP    WIND        PRES    VSBY
                                AIR SEA DIR/SP/G
                 (UTC)          (F)     (DEG/KT/KT) (MB)    (MI)
150E HAT   41001 NOT AVBL
W BERMUDA  41048 0050            64 69  290/ 25/ 31 1000.9R
WVE H/P(F/S)= 16/10

ATLANTIC S 41049 0050            72 72  210/ 21/ 25 1007.0R
WVE H/P(F/S)= 10/ 8 SWL H/P/D(F/S/D)=  8/180/ 8

E BAHAMAS  41046 0050            76 78  290/ 21/ 25 1013.0R
WVE H/P(F/S)= 10/10 SWL H/P/D(F/S/D)=  8/10

NE BAHAMAS 41047 0050            74 74  280/ 23/ 29 1008.9R
WVE H/P(F/S)= 15/11

120E CANVRL41010 NOT AVBL

END



USA.gov is the U.S. government's official web portal to all federal, state and local government web resources and services.